Flag for U.S.A. Weather past 2 weeks in Lafayette, Indiana, U.S.A.

Now
29 °F

Overcast.


Feels Like: 29 °F
Forecast: 20 / 31 °F
Wind: No wind

Location: Purdue University Airport

Current Time: Dec 19, 2014 at 4:15:00 PM

Latest Report: Dec 19, 2014 at 3:54 PM


Visibility: 7 mi

Pressure: 30.31 "Hg

Humidity: 89%

Dew point: 26 °F

Location of LafayetteLocation

Historic Weather in Lafayette — Graph

°F

Lafayette temperature yesterday

Maximum temperature yesterday: 27 °F (at 2:54 PM)
Minimum temperature yesterday: 21 °F (at 11:54 PM)
Average temperature yesterday: 25 °F

Past Weeks' High & Low Weather Summary

 TemperatureHumidityPressure
High48 °F (Dec 14, 2:54 PM)100% (Dec 5, 7:54 AM)30.65 "Hg (Dec 5, 7:54 AM)
Low18 °F (Dec 19, 2:54 AM)59% (Dec 4, 2:54 PM)29.67 "Hg (Dec 16, 2:03 AM)
Average34 °F87%30.23 "Hg
* Reported Dec 4 2:54 PM — Dec 19 2:54 PM, Lafayette, Weather by CustomWeather, © 2014

Note: Actual official high and low records may vary slightly from our data, if they occured in-between our weather recording intervals... More about our weather records

Advertising

Lafayette weather history for previous 24 hours

 ConditionsComfort  
Time TempWeatherWind HumidityBarometerVisibility
2:54 PM
Dec 19
29 °FIce fog.No wind85%30.29 "Hg6 mi
1:54 PM28 °FIce fog.3 mph89%30.30 "Hg6 mi
12:54 PM27 °FIce fog.No wind92%30.31 "Hg6 mi
11:54 AM25 °FIce fog.3 mph92%30.33 "Hg4 mi
10:54 AM25 °FIce fog.No wind88%30.35 "Hg4 mi
9:54 AM24 °FIce fog.No wind88%30.34 "Hg6 mi
8:54 AM23 °FIce fog.No wind88%30.31 "Hg6 mi
7:54 AM22 °FOvercast.No wind92%30.31 "Hg8 mi
6:54 AM21 °FOvercast.No wind92%30.32 "Hg8 mi
5:54 AM20 °FOvercast.No wind96%30.29 "Hg7 mi
4:54 AM19 °FOvercast.3 mph92%30.30 "Hg7 mi
3:54 AM18 °FClear.No wind88%30.31 "Hg8 mi
2:54 AM18 °FClear.No wind96%30.30 "Hg8 mi
1:54 AM19 °FClear.3 mph96%30.29 "Hg8 mi
12:54 AM20 °FClear.3 mph92%30.29 "Hg8 mi
11:54 PM
Dec 18
21 °FClear.No wind92%30.29 "Hg10 mi
10:54 PM23 °FPassing clouds.3 mph85%30.29 "Hg10 mi
9:54 PM24 °FPassing clouds.5 mph84%30.29 "Hg10 mi
8:54 PM25 °FOvercast.7 mph85%30.28 "Hg10 mi
7:54 PM25 °FOvercast.No wind88%30.28 "Hg10 mi
6:54 PM25 °FMostly cloudy.No wind85%30.27 "Hg10 mi
5:54 PM26 °FMostly cloudy.3 mph81%30.27 "Hg10 mi
4:54 PM26 °FMostly cloudy.5 mph81%30.27 "Hg9 mi
Weather by CustomWeather, © 2014

See weather overviewHow to use our weather pages